Regional Weather Roundup
Issued by NWS Albany, NY

Home | Current Version | Previous Version | Text Only | Print | Product List | Glossary On
Versions: 1 2 3 4 5 6 7 8 9 10 11 12 13 14 15 16 17 18 19 20 21 22 23 24 25 26 27 28 29 30 31 32 33 34 35 36 37 38 39 40 41 42 43 44 45 46 47 48 49 50
000
ASUS41 KALY 201110
RWRALY

NEW YORK STATE HOURLY WEATHER ROUNDUP
NATIONAL WEATHER SERVICE ALBANY NY
700 AM EDT SAT SEP 20 2014

NOTE: "FAIR" INDICATES FEW OR NO CLOUDS BELOW 12,000 FEET WITH NO
SIGNIFICANT WEATHER AND/OR NO OBSTRUCTIONS TO VISIBILITY.

NYZ032-033-038>043-046>054-057>066-NYZ062>081-201200-
EAST


CITY           SKY/WX    TMP DP  RH WIND       PRES   REMARKS
ALBANY         CLOUDY    55  46  71 S12       30.26F
GLENS FALLS    CLOUDY    51  45  79 S6        30.25F
POUGHKEEPSIE   PTCLDY    53  49  86 S5        30.29F
NEWBURGH       PTCLDY    50  48  93 CALM      30.31F
MONTGOMERY     PTCLDY    47  45  93 CALM      30.30S FOG
WHITE PLAINS   MOCLDY    53  49  86 CALM      30.32R
ISLIP          PTCLDY    53  50  89 E5        30.30F
NEW YORK CITY  MOCLDY    60  52  74 SE9       30.31S
CENTRAL PARK   PTCLDY    60  52  74 CALM      30.34S
$$

NYZ005>009-017-018-044>046-055-056-201200-
CENTRAL


CITY           SKY/WX    TMP DP  RH WIND       PRES   REMARKS
FULTON         MOCLDY    60  53  77 S10       30.12R
SYRACUSE       MOCLDY    61  53  75 S18G24    30.13R
ROME           CLOUDY    58  52  80 SE6       30.19S
ELMIRA         CLOUDY    62  56  80 S8        30.18S
BINGHAMTON     CLOUDY    56  53  90 S8        30.22S
MONTICELLO     CLOUDY    50  48  93 CALM      30.31R
$$

NYZ026>034-041>043-201200-
NORTH


CITY           SKY/WX    TMP DP  RH WIND       PRES   REMARKS
WATERTOWN      MOCLDY    61  50  67 S10G23    30.08R
FORT DRUM      NOT AVBL
MASSENA        PTCLDY    54  51  90 SW8       30.08S
SARANAC LAKE   CLOUDY    52  47  83 SW15G23   30.12F
PLATTSBURGH    CLOUDY    50  44  80 S6        30.15F
$$

NYZ001>004-010>016-019>021-201200-
WEST


CITY           SKY/WX    TMP DP  RH WIND       PRES   REMARKS
NIAGARA FALLS  CLOUDY    63  56  78 SW12      30.04S
BUFFALO        MOCLDY    63  54  72 SW13      30.05R
DUNKIRK        PTCLDY    62  54  74 S21G28    30.06R
JAMESTOWN      CLOUDY    57  54  88 S8        30.12F
WELLSVILLE     CLOUDY    60  53  77 S10G18    30.17S
ROCHESTER      PTCLDY    57  53  86 SW5       30.07S
PENN YAN       CLEAR     61  54  77 S14G21    30.13S
$$

             KEY
       WCI = WIND CHILL INDEX
       VSB = VISIBILITY
       HX  = HEAT INDEX
$$


USA.gov is the U.S. government's official web portal to all federal, state and local government web resources and services.